KUIPER-00130

导读

KUIPER-00152是美国亚马逊柯伊柏(Kuiper)卫星互联网星座的一员,于2025年9月25日成功发射,编号65772,轨道倾角约93.6度。柯伊柏星座计划部署3236颗卫星,运行在近地轨道,通过多波束相控阵天线提供全球宽带互联网服务,KUIPER-00152的发射是该星座组网进程中的重要一步,助力项目推进全球覆盖目标。

Basic Information
目录编号:
65772
目录名称:
KUIPER-00152
国际标识:
2025-217L
轨道中心:
EARTH
卫星名称:
KUIPER-00152
卫星全名:
KUIPER-00130
卫星状态:
在轨 (已飞行352 天)
发射日期:
2025-09-25 UTC
国别 :
美国 (US)
星等 :
--
This satellite is enrolled in the Space Conjunction Data Service (SCDS) and the current flight risk assessment level is: No High Risk
Orbit Information
数据来源 国际轨道数据 AOE轨道数据
星历时间 2026-09-12T03:24:55+0800
9小时前
查看轨道信息
2026-09-09T08:00:00+0800
3天前
查看轨道信息
半长轴 7007.681km 7007.678km
偏心率 0.0000317 0.0000363
轨道倾角 51.902° 51.900°
近地点辐角 44.941° 56.646°
升交点赤经 287.584° 300.007°
平近点角 315.158° 88.948°
近地点 629.321km 629.286km
远地点 629.767km 629.796km
周期 97.302分钟 97.302分钟
每日圈数 14.799306 14.799316
Detailed Information
使用方式:
暂无
2D Orbit Map
3D Orbit Map
Orbit Altitude Analysis Chart
Orbit Inclination Analysis Chart
Orbit Comprehensive Analysis Chart
View Comprehensive Chart
Conjunction Data List
Event ID Objects TCA Miss Dist (km) Collision Risk Probability Collision Risk Index (CRI) Action
CDM_260914-105605-369906-577221
2026-09-14T
10:56:12+0000
2.161 km
极远距离
1.803409E-6 低风险 0.4
Miss Distance Evolution Trend with All Objects
Collision Probability Evolution Trend with All Objects